THY1955 LTFM-EHAM

Flight info

Callsign THY1955
Flight time N/A
Altitude 40000
Route TUDBU1D/35L TUDBU Q26 ETUBA DCT AMTOV DCT MOPUG DCT VAJDI DCT GYR DCT DITIS DCT RAPET DCT MASEK L604 MAPOX DCT NORKU NORKU2A
Aircraft A333/H-SDE3GHIJ2J3J5M1RVWXY/LB2D1

Departure

Time 2026-05-06 17:58
Airport İstanbul Airport (LTFM)

Arrival

Time N/A
Airport Amsterdam Airport Schiphol (EHAM)
Time Latitude Longitude Altitude Speed Heading
2026-05-06 17:21 41.26693 28.73455 338 ft 0 kts 89°
2026-05-06 17:46 41.26693 28.73447 338 ft 2 kts 89°
2026-05-06 17:46 41.26693 28.73428 338 ft 2 kts 89°
2026-05-06 17:46 41.26693 28.73408 338 ft 2 kts 89°
2026-05-06 17:46 41.26693 28.73388 338 ft 2 kts 89°
2026-05-06 17:47 41.26693 28.73369 339 ft 2 kts 105°
2026-05-06 17:47 41.26699 28.73351 339 ft 2 kts 139°
2026-05-06 17:47 41.26711 28.73341 338 ft 2 kts 167°
2026-05-06 17:47 41.26726 28.73340 338 ft 2 kts 196°
2026-05-06 17:48 41.26740 28.73348 338 ft 2 kts 225°
2026-05-06 17:48 41.26745 28.73355 338 ft 1 kts 237°
2026-05-06 17:48 41.26746 28.73359 339 ft 0 kts 236°
2026-05-06 17:52 41.26746 28.73358 338 ft 0 kts 236°
2026-05-06 17:52 41.26737 28.73341 338 ft 3 kts 236°
2026-05-06 17:53 41.26721 28.73297 338 ft 6 kts 251°
2026-05-06 17:53 41.26709 28.73221 338 ft 10 kts 264°
2026-05-06 17:53 41.26711 28.73112 338 ft 12 kts 270°
2026-05-06 17:53 41.26709 28.72983 338 ft 15 kts 270°
2026-05-06 17:54 41.26709 28.72973 338 ft 0 kts 270°
2026-05-06 17:54 41.26709 28.72970 338 ft 1 kts 269°
2026-05-06 17:54 41.26709 28.72921 338 ft 8 kts 270°
2026-05-06 17:54 41.26710 28.72813 338 ft 7 kts 272°
2026-05-06 17:55 41.26757 28.72773 338 ft 11 kts 339°
2026-05-06 17:55 41.26804 28.72765 338 ft 0 kts 359°
2026-05-06 17:56 41.26818 28.72764 338 ft 6 kts 358°
2026-05-06 17:57 41.26899 28.72762 338 ft 22 kts 360°
2026-05-06 17:57 41.27249 28.72753 339 ft 77 kts 358°
2026-05-06 17:57 41.27954 28.72743 339 ft 123 kts
2026-05-06 17:57 41.28936 28.72757 346 ft 166 kts
2026-05-06 17:58 41.30228 28.72708 703 ft 200 kts 359°
2026-05-06 17:58 41.31685 28.72601 1625 ft 215 kts 359°
2026-05-06 17:58 41.33148 28.72560 3093 ft 220 kts 359°
2026-05-06 17:58 41.34638 28.72544 4579 ft 227 kts 359°
2026-05-06 17:59 41.36354 28.72533 5068 ft 283 kts 359°
2026-05-06 17:59 41.38582 28.72324 4986 ft 337 kts 348°
2026-05-06 17:59 41.40622 28.71228 4929 ft 301 kts 329°
2026-05-06 17:59 41.42374 28.69940 5083 ft 277 kts 334°
2026-05-06 18:00 41.44085 28.68814 4945 ft 269 kts 334°
2026-05-06 18:00 41.45729 28.67753 5003 ft 255 kts 335°
2026-05-06 18:00 41.47281 28.66758 4984 ft 245 kts 335°
2026-05-06 18:00 41.48841 28.65761 5101 ft 258 kts 335°
2026-05-06 18:01 41.50403 28.64760 6227 ft 251 kts 335°
2026-05-06 18:01 41.51996 28.63741 6809 ft 264 kts 335°
2026-05-06 18:01 41.53508 28.62773 7231 ft 279 kts 335°
2026-05-06 18:01 41.55274 28.61640 8040 ft 283 kts 335°
2026-05-06 18:02 41.57035 28.60489 8820 ft 286 kts 332°
2026-05-06 18:02 41.58553 28.58734 9487 ft 295 kts 314°
2026-05-06 18:02 41.59925 28.56690 10285 ft 296 kts 315°
2026-05-06 18:02 41.61310 28.54660 10983 ft 300 kts 315°
2026-05-06 18:03 41.62693 28.52635 11707 ft 300 kts 315°
2026-05-06 18:03 41.64107 28.50561 12374 ft 303 kts 315°
2026-05-06 18:03 41.65526 28.48480 13015 ft 306 kts 315°
2026-05-06 18:03 41.66946 28.46332 13626 ft 310 kts 309°
2026-05-06 18:04 41.67930 28.43775 14181 ft 317 kts 296°
2026-05-06 18:04 41.68803 28.41082 14743 ft 320 kts 297°
2026-05-06 18:04 41.69716 28.38299 14867 ft 337 kts 297°
2026-05-06 18:04 41.70684 28.35341 15014 ft 352 kts 297°
2026-05-06 18:05 41.71678 28.32295 15420 ft 359 kts 296°
2026-05-06 18:05 41.72672 28.29245 15980 ft 361 kts 297°
2026-05-06 18:05 41.73669 28.26186 16487 ft 363 kts 296°
2026-05-06 18:05 41.74689 28.23053 16956 ft 367 kts 297°
2026-05-06 18:06 41.75697 28.19954 17400 ft 369 kts 297°
2026-05-06 18:06 41.79704 28.07881 19048 ft 371 kts 305°
2026-05-06 18:06 41.81252 28.05154 19344 ft 373 kts 310°
2026-05-06 18:06 41.83744 28.00784 20102 ft 372 kts 310°
2026-05-06 18:07 41.97053 27.76936 21698 ft 378 kts 312°
2026-05-06 18:07 41.98941 27.74428 21764 ft 384 kts 319°
2026-05-06 18:07 42.00849 27.71919 22071 ft 386 kts 318°
2026-05-06 18:07 42.02740 27.69375 22405 ft 387 kts 317°
2026-05-06 18:08 42.04622 27.66819 22656 ft 389 kts 317°
2026-05-06 18:08 42.06528 27.64214 22914 ft 391 kts 317°
2026-05-06 18:08 42.08445 27.61587 23170 ft 393 kts 317°
2026-05-06 18:08 42.10357 27.58963 23537 ft 392 kts 317°
2026-05-06 18:09 42.12245 27.56370 23730 ft 396 kts 317°
2026-05-06 18:09 42.14195 27.53689 23980 ft 398 kts 317°
2026-05-06 18:09 42.16104 27.51060 24289 ft 398 kts 317°
2026-05-06 18:09 42.18047 27.48383 24516 ft 400 kts 317°
2026-05-06 18:10 42.19994 27.45699 24737 ft 402 kts 317°
2026-05-06 18:10 42.21933 27.43021 25044 ft 401 kts 317°
2026-05-06 18:10 42.23902 27.40300 25217 ft 404 kts 317°
2026-05-06 18:10 42.25843 27.37615 25458 ft 405 kts 317°
2026-05-06 18:11 42.27795 27.34912 25731 ft 404 kts 317°
2026-05-06 18:11 42.29778 27.32166 25934 ft 406 kts 317°
2026-05-06 18:11 42.31737 27.29447 26108 ft 407 kts 316°
2026-05-06 18:11 42.33702 27.26720 26329 ft 408 kts 316°
2026-05-06 18:12 42.35683 27.23965 26552 ft 408 kts 316°
2026-05-06 18:12 42.37676 27.21195 26711 ft 410 kts 317°
2026-05-06 18:12 42.39633 27.18471 26933 ft 410 kts 316°
2026-05-06 18:12 42.41624 27.15695 27134 ft 410 kts 316°
2026-05-06 18:13 42.43621 27.12909 27282 ft 412 kts 316°
2026-05-06 18:13 42.45609 27.10135 27436 ft 413 kts 316°
2026-05-06 18:13 42.47602 27.07345 27648 ft 412 kts 316°
2026-05-06 18:13 42.49592 27.04562 27798 ft 413 kts 316°
2026-05-06 18:14 42.51585 27.01771 27936 ft 414 kts 316°
2026-05-06 18:14 42.53581 26.98976 28106 ft 414 kts 316°
2026-05-06 18:14 42.55567 26.96187 28265 ft 415 kts 316°
2026-05-06 18:14 42.57568 26.93377 28407 ft 415 kts 316°
2026-05-06 18:15 42.59583 26.90542 28537 ft 416 kts 316°
2026-05-06 18:15 42.61575 26.87740 28678 ft 417 kts 316°
2026-05-06 18:15 42.63591 26.84897 28808 ft 417 kts 316°
2026-05-06 18:15 42.65604 26.82060 28950 ft 417 kts 316°
2026-05-06 18:16 42.67616 26.79220 29086 ft 417 kts 316°
2026-05-06 18:16 42.69619 26.76391 29219 ft 418 kts 316°
2026-05-06 18:16 42.71622 26.73558 29343 ft 418 kts 316°
2026-05-06 18:16 42.73629 26.70716 29467 ft 418 kts 316°
2026-05-06 18:17 42.75643 26.67860 29589 ft 418 kts 316°
2026-05-06 18:17 42.77650 26.65014 29714 ft 418 kts 316°
2026-05-06 18:17 42.79662 26.62156 29833 ft 418 kts 316°
2026-05-06 18:17 42.81645 26.59241 29949 ft 418 kts 312°
2026-05-06 18:18 42.83393 26.56040 30059 ft 419 kts 309°
2026-05-06 18:18 42.85104 26.52887 30190 ft 418 kts 309°
2026-05-06 18:18 42.86845 26.49671 30315 ft 418 kts 309°
2026-05-06 18:18 42.88557 26.46507 30428 ft 417 kts 309°
2026-05-06 18:19 42.90291 26.43300 30555 ft 417 kts 309°
2026-05-06 18:19 42.91999 26.40142 30672 ft 416 kts 309°
2026-05-06 18:19 42.93710 26.36969 30789 ft 415 kts 309°
2026-05-06 18:19 42.95435 26.33771 30911 ft 415 kts 308°
2026-05-06 18:20 42.97136 26.30611 31036 ft 414 kts 308°
2026-05-06 18:20 42.98844 26.27434 31164 ft 413 kts 309°
2026-05-06 18:20 43.00515 26.24324 31288 ft 413 kts 308°
2026-05-06 18:20 43.02229 26.21132 31407 ft 412 kts 308°
2026-05-06 18:21 43.03910 26.17998 31527 ft 411 kts 309°
2026-05-06 18:21 43.05600 26.14842 31651 ft 410 kts 308°
2026-05-06 18:21 43.07285 26.11693 31776 ft 410 kts 308°
2026-05-06 18:21 43.08947 26.08581 31896 ft 409 kts 309°
2026-05-06 18:22 43.10623 26.05443 32018 ft 408 kts 308°
2026-05-06 18:22 43.12292 26.02315 32160 ft 407 kts 308°
2026-05-06 18:22 43.13969 25.99168 32306 ft 406 kts 308°
2026-05-06 18:22 43.15613 25.96079 32445 ft 405 kts 308°
2026-05-06 18:23 43.17266 25.92971 32584 ft 404 kts 308°
2026-05-06 18:23 43.18923 25.89849 32726 ft 403 kts 308°
2026-05-06 18:23 43.20567 25.86753 32863 ft 402 kts 308°
2026-05-06 18:23 43.22200 25.83668 33003 ft 401 kts 308°
2026-05-06 18:24 43.23826 25.80598 33139 ft 400 kts 308°
2026-05-06 18:24 43.25444 25.77538 33275 ft 399 kts 308°
2026-05-06 18:24 43.27082 25.74438 33413 ft 398 kts 308°
2026-05-06 18:24 43.28697 25.71380 33546 ft 396 kts 308°
2026-05-06 18:25 43.30288 25.68362 33679 ft 395 kts 308°
2026-05-06 18:25 43.31900 25.65300 33815 ft 394 kts 308°
2026-05-06 18:25 43.33501 25.62260 33950 ft 393 kts 308°
2026-05-06 18:25 43.35089 25.59238 34082 ft 391 kts 308°
2026-05-06 18:26 43.36687 25.56194 34215 ft 390 kts 308°
2026-05-06 18:26 43.38266 25.53185 34347 ft 389 kts 308°
2026-05-06 18:26 43.39825 25.50211 34468 ft 387 kts 308°
2026-05-06 18:26 43.41389 25.47219 34582 ft 386 kts 308°
2026-05-06 18:27 43.42950 25.44237 34695 ft 384 kts 308°
2026-05-06 18:27 43.44506 25.41258 34810 ft 383 kts 308°
2026-05-06 18:27 43.46063 25.38277 34922 ft 381 kts 308°
2026-05-06 18:27 43.47597 25.35332 35032 ft 380 kts 308°
2026-05-06 18:28 43.49140 25.32370 35148 ft 378 kts 307°
2026-05-06 18:28 43.50663 25.29443 35267 ft 377 kts 307°
2026-05-06 18:28 43.52188 25.26509 35387 ft 375 kts 307°
2026-05-06 18:28 43.53697 25.23604 35504 ft 373 kts 307°
2026-05-06 18:29 43.55185 25.20736 35621 ft 371 kts 307°
2026-05-06 18:29 43.56685 25.17842 35738 ft 369 kts 307°
2026-05-06 18:29 43.58178 25.14957 35857 ft 368 kts 307°
2026-05-06 18:29 43.59652 25.12109 35971 ft 366 kts 307°
2026-05-06 18:30 43.61117 25.09274 36086 ft 364 kts 307°
2026-05-06 18:30 43.62565 25.06471 36198 ft 362 kts 307°
2026-05-06 18:30 43.64021 25.03646 36310 ft 360 kts 307°
2026-05-06 18:30 43.65470 25.00834 36427 ft 357 kts 307°
2026-05-06 18:31 43.66904 24.98050 36556 ft 355 kts 307°
2026-05-06 18:31 43.68321 24.95293 36698 ft 353 kts 307°
2026-05-06 18:31 43.69726 24.92559 36835 ft 351 kts 307°
2026-05-06 18:31 43.71137 24.89809 36985 ft 348 kts 307°
2026-05-06 18:32 43.72517 24.87121 37133 ft 346 kts 307°
2026-05-06 18:32 43.73896 24.84429 37279 ft 343 kts 307°
2026-05-06 18:32 43.75266 24.81753 37424 ft 340 kts 307°
2026-05-06 18:32 43.76625 24.79095 37574 ft 337 kts 307°
2026-05-06 18:33 43.77959 24.76486 37714 ft 334 kts 307°
2026-05-06 18:33 43.79301 24.73858 37852 ft 331 kts 307°
2026-05-06 18:33 43.80608 24.71294 37989 ft 328 kts 307°
2026-05-06 18:33 43.81918 24.68724 38130 ft 325 kts 306°
2026-05-06 18:34 43.83211 24.66184 38266 ft 321 kts 306°
2026-05-06 18:34 43.84479 24.63693 38397 ft 317 kts 306°
2026-05-06 18:34 43.85746 24.61198 38545 ft 313 kts 307°
2026-05-06 18:34 43.86991 24.58749 38686 ft 309 kts 306°
2026-05-06 18:35 43.88211 24.56343 38816 ft 304 kts 307°
2026-05-06 18:35 43.89420 24.53960 38941 ft 300 kts 307°
2026-05-06 18:35 43.90612 24.51608 39064 ft 295 kts 307°
2026-05-06 18:35 43.91777 24.49305 39183 ft 290 kts 306°
2026-05-06 18:36 43.92914 24.47059 39281 ft 287 kts 307°
2026-05-06 18:36 43.94097 24.44860 39514 ft 283 kts 314°
2026-05-06 18:36 43.95686 24.43210 39301 ft 294 kts 340°
2026-05-06 18:36 43.97768 24.42899 38412 ft 328 kts
2026-05-06 18:37 43.99868 24.44395 38225 ft 351 kts 42°
2026-05-06 18:37 44.00803 24.46202 38730 ft 351 kts 63°
2026-05-06 18:37 44.01186 24.50538 39616 ft 349 kts 102°
2026-05-06 18:37 44.00189 24.53692 39123 ft 370 kts 130°
2026-05-06 18:38 43.98161 24.55972 38384 ft 386 kts 161°
2026-05-06 18:38 43.95595 24.56597 38595 ft 370 kts 193°
2026-05-06 18:38 43.93316 24.55526 39420 ft 335 kts 223°
2026-05-06 18:38 43.91782 24.53268 39650 ft 315 kts 251°
2026-05-06 18:39 43.91277 24.50368 39008 ft 317 kts 281°
2026-05-06 18:39 43.92008 24.47546 38567 ft 319 kts 312°
2026-05-06 18:39 43.93771 24.45827 39034 ft 311 kts 343°
2026-05-06 18:40 43.97809 24.47164 39459 ft 331 kts 41°
2026-05-06 18:40 43.99079 24.49918 38820 ft 364 kts 71°
2026-05-06 18:40 43.99209 24.53479 38799 ft 378 kts 103°
2026-05-06 18:40 43.98079 24.56689 39464 ft 369 kts 134°
2026-05-06 18:41 43.96098 24.58787 39801 ft 360 kts 162°
2026-05-06 18:41 43.93658 24.59476 39305 ft 364 kts 191°
2026-05-06 18:41 43.91275 24.58485 38808 ft 360 kts 221°
2026-05-06 18:41 43.89661 24.56068 39129 ft 334 kts 253°
2026-05-06 18:42 43.89212 24.53125 39745 ft 306 kts 282°
2026-05-06 18:42 43.89885 24.50410 39716 ft 300 kts 310°
2026-05-06 18:42 43.91539 24.48581 39161 ft 316 kts 340°
2026-05-06 18:42 43.93734 24.48321 39029 ft 330 kts 11°
2026-05-06 18:43 43.95763 24.49811 39552 ft 335 kts 42°
2026-05-06 18:43 43.97010 24.52546 39872 ft 345 kts 71°
2026-05-06 18:43 43.97220 24.55890 39536 ft 367 kts 99°
2026-05-06 18:43 43.96236 24.59214 39093 ft 386 kts 129°
2026-05-06 18:44 43.94175 24.61561 39292 ft 380 kts 161°
2026-05-06 18:44 43.91707 24.62277 39817 ft 358 kts 190°
2026-05-06 18:44 43.89369 24.61412 39903 ft 343 kts 219°
2026-05-06 18:44 43.87678 24.59231 39479 ft 338 kts 248°
2026-05-06 18:45 43.87044 24.56168 39241 ft 327 kts 279°
2026-05-06 18:45 43.87683 24.53304 39622 ft 309 kts 309°
2026-05-06 18:45 43.89269 24.51447 40008 ft 302 kts 338°
2026-05-06 18:45 43.90643 24.50974 39927 ft 310 kts 357°
2026-05-06 18:46 43.93457 24.52202 39336 ft 345 kts 37°
2026-05-06 18:46 43.94911 24.54951 39453 ft 360 kts 68°
2026-05-06 18:46 43.95202 24.58328 39959 ft 362 kts 97°
2026-05-06 18:46 43.94335 24.61615 40051 ft 368 kts 126°
2026-05-06 18:47 43.92503 24.64048 39614 ft 379 kts 155°
2026-05-06 18:47 43.89981 24.65073 39342 ft 378 kts 186°
2026-05-06 18:47 43.87521 24.64332 39688 ft 354 kts 216°
2026-05-06 18:47 43.85741 24.62201 40098 ft 328 kts 245°
2026-05-06 18:48 43.84986 24.59365 39978 ft 317 kts 274°
2026-05-06 18:48 43.85399 24.56411 39531 ft 318 kts 304°
2026-05-06 18:48 43.86945 24.54254 39524 ft 318 kts 335°
2026-05-06 18:48 43.89058 24.53649 39958 ft 316 kts
2026-05-06 18:49 43.91129 24.54656 40127 ft 328 kts 33°
2026-05-06 18:49 43.92670 24.57071 39810 ft 353 kts 62°
2026-05-06 18:49 43.93217 24.60497 39501 ft 375 kts 92°
2026-05-06 18:49 43.92493 24.63937 39747 ft 379 kts 123°
2026-05-06 18:50 43.90712 24.66529 40157 ft 370 kts 152°
2026-05-06 18:50 43.88362 24.67737 40141 ft 365 kts 180°
2026-05-06 18:50 43.85863 24.67351 39754 ft 363 kts 210°
2026-05-06 18:50 43.83863 24.65379 39628 ft 348 kts 240°
2026-05-06 18:51 43.82926 24.62463 39981 ft 323 kts 271°
2026-05-06 18:51 43.83181 24.59533 40252 ft 307 kts 299°
2026-05-06 18:51 43.84490 24.57241 40075 ft 310 kts 328°
2026-05-06 18:51 43.86536 24.56251 39754 ft 326 kts 358°
2026-05-06 18:52 43.88762 24.56978 39825 ft 338 kts 28°
2026-05-06 18:52 43.90436 24.59227 40166 ft 347 kts 57°
2026-05-06 18:52 43.91168 24.62441 40237 ft 360 kts 86°
2026-05-06 18:52 43.90733 24.65926 39970 ft 378 kts 115°
2026-05-06 18:53 43.89150 24.68816 39790 ft 384 kts 146°
2026-05-06 18:53 43.86798 24.70361 39957 ft 374 kts 175°
2026-05-06 18:53 43.84299 24.70254 40209 ft 356 kts 204°
2026-05-06 18:53 43.82200 24.68633 40177 ft 342 kts 233°
2026-05-06 18:54 43.80985 24.65908 39945 ft 332 kts 263°
2026-05-06 18:54 43.80975 24.62804 39894 ft 321 kts 293°
2026-05-06 18:54 43.82122 24.60306 40128 ft 311 kts 323°
2026-05-06 18:54 43.84061 24.59046 40328 ft 312 kts 352°
2026-05-06 18:55 43.86260 24.59386 40193 ft 330 kts 21°
2026-05-06 18:55 43.88134 24.61350 39982 ft 352 kts 51°
2026-05-06 18:55 43.89099 24.64457 40042 ft 366 kts 81°
2026-05-06 18:55 43.88874 24.67996 40275 ft 371 kts 110°
2026-05-06 18:56 43.87516 24.70999 40341 ft 374 kts 139°
2026-05-06 18:56 43.85313 24.72868 40136 ft 376 kts 168°
2026-05-06 18:56 43.82751 24.73131 39967 ft 369 kts 198°
2026-05-06 18:56 43.80497 24.71740 40075 ft 350 kts 228°
2026-05-06 18:57 43.79104 24.69185 40281 ft 329 kts 257°
2026-05-06 18:57 43.78833 24.66155 40275 ft 316 kts 286°
2026-05-06 18:57 43.79742 24.63431 40115 ft 314 kts 316°
2026-05-06 18:57 43.81562 24.61836 40067 ft 319 kts 346°
2026-05-06 18:58 43.83795 24.61851 40222 ft 327 kts 15°
2026-05-06 18:58 43.85745 24.63487 40349 ft 341 kts 44°
2026-05-06 18:58 43.86939 24.66381 40264 ft 359 kts 73°
2026-05-06 18:58 43.87010 24.69862 40135 ft 375 kts 103°
2026-05-06 18:59 43.85862 24.73105 40194 ft 379 kts 133°
2026-05-06 18:59 43.83794 24.75252 40323 ft 375 kts 162°
2026-05-06 18:59 43.81294 24.75882 40292 ft 367 kts 191°
2026-05-06 18:59 43.78916 24.74881 40140 ft 356 kts 221°
2026-05-06 19:00 43.77243 24.72498 40120 ft 340 kts 251°
2026-05-06 19:00 43.76710 24.69438 40279 ft 321 kts 281°
2026-05-06 19:00 43.77372 24.66613 40366 ft 310 kts 309°
2026-05-06 19:00 43.78374 24.65207 40311 ft 311 kts 329°
2026-05-06 19:01 43.81181 24.64308 40129 ft 327 kts
2026-05-06 19:01 43.83277 24.65602 40224 ft 341 kts 38°
2026-05-06 19:01 43.84673 24.68248 40366 ft 354 kts 67°
2026-05-06 19:01 43.85021 24.71687 40322 ft 369 kts 96°
2026-05-06 19:02 43.84167 24.75046 40165 ft 381 kts 126°
2026-05-06 19:02 43.82276 24.77531 40145 ft 381 kts 155°
2026-05-06 19:02 43.79790 24.78547 40291 ft 370 kts 185°
2026-05-06 19:02 43.77323 24.77900 40346 ft 356 kts 214°
2026-05-06 19:03 43.75450 24.75817 40222 ft 342 kts 243°
2026-05-06 19:03 43.74615 24.72854 40151 ft 329 kts 273°
2026-05-06 19:03 43.74999 24.69887 40266 ft 315 kts 302°
2026-05-06 19:03 43.76443 24.67692 40378 ft 311 kts 332°
2026-05-06 19:04 43.78520 24.66885 40322 ft 321 kts
2026-05-06 19:04 43.80718 24.67742 40176 ft 339 kts 30°
2026-05-06 19:04 43.82364 24.70130 40184 ft 355 kts 60°
2026-05-06 19:04 43.82986 24.73418 40336 ft 365 kts 89°
2026-05-06 19:05 43.82417 24.76866 40375 ft 374 kts 118°
2026-05-06 19:05 43.80751 24.79635 40259 ft 379 kts 148°
2026-05-06 19:05 43.78366 24.81056 40146 ft 377 kts 178°
2026-05-06 19:05 43.75833 24.80810 40191 ft 364 kts 207°
2026-05-06 19:06 43.73765 24.79021 40319 ft 344 kts 236°
2026-05-06 19:06 43.72657 24.76242 40352 ft 327 kts 265°
2026-05-06 19:06 43.72728 24.73198 40290 ft 317 kts 295°
2026-05-06 19:06 43.73934 24.70733 40254 ft 315 kts 324°
2026-05-06 19:07 43.75929 24.69547 40305 ft 319 kts 354°
2026-05-06 19:07 43.78131 24.70006 40372 ft 331 kts 23°
2026-05-06 19:07 43.79961 24.72051 40325 ft 349 kts 52°
2026-05-06 19:07 43.80876 24.75207 40252 ft 366 kts 82°
2026-05-06 19:08 43.80603 24.78684 40284 ft 376 kts 111°
2026-05-06 19:08 43.79156 24.81704 40369 ft 377 kts 141°
2026-05-06 19:08 43.76936 24.83460 40383 ft 374 kts 170°
2026-05-06 19:08 43.74371 24.83645 40301 ft 366 kts 199°
2026-05-06 19:09 43.72118 24.82199 40199 ft 353 kts 229°
2026-05-06 19:09 43.70737 24.79549 40269 ft 334 kts 259°
2026-05-06 19:09 43.70536 24.76502 40401 ft 317 kts 288°
2026-05-06 19:09 43.71479 24.73850 40412 ft 311 kts 317°
2026-05-06 19:10 43.73321 24.72284 40308 ft 318 kts 346°
2026-05-06 19:10 43.75556 24.72321 40244 ft 332 kts 16°
2026-05-06 19:10 43.77523 24.74010 40346 ft 345 kts 45°
2026-05-06 19:10 43.78684 24.76934 40422 ft 358 kts 75°
2026-05-06 19:11 43.78720 24.80414 40387 ft 371 kts 104°
2026-05-06 19:11 43.77570 24.83616 40286 ft 381 kts 133°
2026-05-06 19:11 43.75468 24.85762 40295 ft 379 kts 163°
2026-05-06 19:11 43.72919 24.86343 40391 ft 368 kts 192°
2026-05-06 19:12 43.70556 24.85285 40396 ft 353 kts 221°
2026-05-06 19:12 43.68916 24.82911 40338 ft 339 kts 251°
2026-05-06 19:12 43.68385 24.79832 40304 ft 325 kts 281°
2026-05-06 19:12 43.69060 24.77007 40368 ft 314 kts 310°
2026-05-06 19:13 43.70721 24.75108 40423 ft 314 kts 339°
2026-05-06 19:13 43.72904 24.74716 40399 ft 324 kts
2026-05-06 19:13 43.74986 24.75985 40346 ft 342 kts 38°
2026-05-06 19:13 43.76414 24.78673 40336 ft 358 kts 68°
2026-05-06 19:14 43.76746 24.82054 40380 ft 369 kts 97°
2026-05-06 19:14 43.75874 24.85407 40434 ft 375 kts 126°
2026-05-06 19:14 43.73988 24.87866 40411 ft 377 kts 155°
2026-05-06 19:14 43.71511 24.88876 40339 ft 372 kts 185°
2026-05-06 19:15 43.69025 24.88198 40316 ft 359 kts 215°
2026-05-06 19:15 43.67178 24.86074 40376 ft 341 kts 244°
2026-05-06 19:15 43.66380 24.83170 40415 ft 324 kts 273°
2026-05-06 19:15 43.66771 24.80168 40382 ft 316 kts 302°
2026-05-06 19:16 43.68224 24.77981 40338 ft 316 kts 332°
2026-05-06 19:16 43.70317 24.77197 40359 ft 323 kts
2026-05-06 19:16 43.72480 24.78073 40430 ft 335 kts 31°
2026-05-06 19:16 43.74113 24.80445 40418 ft 351 kts 60°
2026-05-06 19:17 43.74742 24.83723 40362 ft 368 kts 89°
2026-05-06 19:17 43.74159 24.87206 40353 ft 378 kts 119°
2026-05-06 19:17 43.72489 24.89924 40409 ft 378 kts 148°
2026-05-06 19:17 43.70095 24.91313 40463 ft 371 kts 178°
2026-05-06 19:18 43.67604 24.91060 40433 ft 360 kts 207°
2026-05-06 19:18 43.65549 24.89292 40356 ft 348 kts 236°
2026-05-06 19:18 43.64429 24.86439 40359 ft 332 kts 266°
2026-05-06 19:18 43.64533 24.83381 40449 ft 317 kts 295°
2026-05-06 19:19 43.65757 24.80934 40500 ft 312 kts 324°
2026-05-06 19:19 43.67726 24.79761 40448 ft 319 kts 353°
2026-05-06 19:19 43.69949 24.80212 40389 ft 334 kts 23°
2026-05-06 19:19 43.71772 24.82283 40444 ft 349 kts 53°
2026-05-06 19:20 43.72653 24.85438 40534 ft 361 kts 83°
2026-05-06 19:20 43.72360 24.88887 40536 ft 373 kts 111°
2026-05-06 19:20 43.70935 24.91850 40462 ft 380 kts 141°
2026-05-06 19:20 43.68625 24.93638 40438 ft 378 kts 171°
2026-05-06 19:21 43.66090 24.93756 40500 ft 366 kts 200°
2026-05-06 19:21 43.63873 24.92294 40560 ft 349 kts 229°
2026-05-06 19:21 43.62498 24.89658 40544 ft 334 kts 258°
2026-05-06 19:21 43.62291 24.86545 40502 ft 323 kts 288°
2026-05-06 19:22 43.63276 24.83852 40515 ft 317 kts 317°
2026-05-06 19:22 43.65141 24.82317 40571 ft 318 kts 347°
2026-05-06 19:22 43.67321 24.82364 40616 ft 327 kts 16°
2026-05-06 19:22 43.69304 24.84043 40596 ft 344 kts 45°
2026-05-06 19:23 43.70474 24.86955 40544 ft 362 kts 75°
2026-05-06 19:23 43.70502 24.90490 40526 ft 375 kts 104°
2026-05-06 19:23 43.69324 24.93684 40582 ft 379 kts 134°
2026-05-06 19:23 43.67251 24.95793 40618 ft 376 kts 162°
2026-05-06 19:24 43.64712 24.96392 40601 ft 368 kts 192°
2026-05-06 19:24 43.62353 24.95348 40562 ft 356 kts 221°
2026-05-06 19:24 43.60696 24.92942 40558 ft 340 kts 251°
2026-05-06 19:24 43.60169 24.89902 40598 ft 324 kts 280°
2026-05-06 19:25 43.60844 24.87019 40625 ft 316 kts 309°
2026-05-06 19:25 43.62489 24.85108 40610 ft 317 kts 338°
2026-05-06 19:25 43.64661 24.84677 40587 ft 326 kts
2026-05-06 19:25 43.66783 24.85938 40631 ft 340 kts 37°
2026-05-06 19:26 43.68206 24.88568 40681 ft 355 kts 66°
2026-05-06 19:26 43.68570 24.91994 40649 ft 370 kts 96°
2026-05-06 19:26 43.67722 24.95350 40602 ft 380 kts 125°
2026-05-06 19:26 43.65823 24.97848 40622 ft 380 kts 155°
2026-05-06 19:27 43.63369 24.98870 40668 ft 371 kts 184°
2026-05-06 19:27 43.60886 24.98245 40685 ft 358 kts 213°
2026-05-06 19:27 43.58994 24.96165 40671 ft 343 kts 243°
2026-05-06 19:27 43.58145 24.93248 40663 ft 329 kts 272°
2026-05-06 19:28 43.58493 24.90237 40697 ft 318 kts 301°
2026-05-06 19:28 43.59923 24.87971 40706 ft 317 kts 330°
2026-05-06 19:28 43.62014 24.87091 40690 ft 324 kts 359°
2026-05-06 19:28 43.64222 24.87876 40699 ft 337 kts 29°
2026-05-06 19:29 43.65894 24.90149 40729 ft 352 kts 58°
2026-05-06 19:29 43.66599 24.93425 40753 ft 365 kts 87°
2026-05-06 19:29 43.66096 24.96888 40749 ft 375 kts 117°
2026-05-06 19:29 43.64489 24.99685 40711 ft 380 kts 146°
2026-05-06 19:30 43.62123 25.01185 40705 ft 376 kts 175°
2026-05-06 19:30 43.59566 25.01024 40747 ft 364 kts 205°
2026-05-06 19:30 43.57474 24.99332 40785 ft 348 kts 234°
2026-05-06 19:30 43.56277 24.96564 40777 ft 333 kts 263°
2026-05-06 19:31 43.56262 24.93479 40749 ft 323 kts 292°
2026-05-06 19:31 43.57416 24.90882 40751 ft 318 kts 322°
2026-05-06 19:31 43.61612 24.89838 40818 ft 332 kts 20°
2026-05-06 19:32 43.63506 24.91723 40803 ft 347 kts 50°
2026-05-06 19:32 43.64536 24.94764 40775 ft 363 kts 79°
2026-05-06 19:32 43.64394 24.98298 40769 ft 375 kts 108°
2026-05-06 19:32 43.63057 25.01400 40795 ft 379 kts 138°
2026-05-06 19:33 43.60856 25.03315 40823 ft 376 kts 167°
2026-05-06 19:33 43.58329 25.03649 40810 ft 368 kts 196°
2026-05-06 19:33 43.56003 25.02353 40778 ft 355 kts 225°
2026-05-06 19:33 43.54496 24.99808 40767 ft 340 kts 255°
2026-05-06 19:34 43.54134 24.96698 40806 ft 325 kts 284°
2026-05-06 19:34 43.54968 24.93891 40841 ft 317 kts 313°
2026-05-06 19:34 43.56714 24.92151 40840 ft 318 kts 342°
2026-05-06 19:34 43.58935 24.91929 40807 ft 329 kts 11°
2026-05-06 19:35 43.61013 24.93387 40782 ft 345 kts 41°
2026-05-06 19:35 43.62332 24.96160 40810 ft 359 kts 70°
2026-05-06 19:35 43.62549 24.99579 40852 ft 370 kts 99°
2026-05-06 19:35 43.61584 25.02853 40834 ft 378 kts 128°
2026-05-06 19:36 43.59601 25.05221 40807 ft 379 kts 158°
2026-05-06 19:36 43.57106 25.06078 40788 ft 373 kts 187°
2026-05-06 19:36 43.54645 25.05278 40791 ft 360 kts 216°
2026-05-06 19:36 43.52826 25.03051 40800 ft 343 kts 246°
2026-05-06 19:37 43.52087 25.00053 40799 ft 328 kts 275°
2026-05-06 19:37 43.52543 24.97101 40799 ft 319 kts 304°
2026-05-06 19:37 43.54081 24.94918 40798 ft 317 kts 333°
2026-05-06 19:37 43.55471 24.94264 40802 ft 321 kts 353°
2026-05-06 19:38 43.58368 24.95153 40804 ft 338 kts 32°
2026-05-06 19:38 43.59972 24.97572 40792 ft 354 kts 61°
2026-05-06 19:38 43.60557 25.00873 40773 ft 368 kts 90°
2026-05-06 19:38 43.59940 25.04290 40789 ft 376 kts 120°
2026-05-06 19:39 43.58218 25.07001 40807 ft 377 kts 149°
2026-05-06 19:39 43.55824 25.08323 40795 ft 373 kts 178°
2026-05-06 19:39 43.53296 25.07997 40780 ft 362 kts 208°
2026-05-06 19:39 43.51274 25.06169 40759 ft 348 kts 237°
2026-05-06 19:40 43.50190 25.03310 40765 ft 333 kts 266°
2026-05-06 19:40 43.50310 25.00256 40799 ft 320 kts 295°
2026-05-06 19:40 43.51564 24.97785 40830 ft 315 kts 325°
2026-05-06 19:40 43.53591 24.96616 40825 ft 321 kts 354°
2026-05-06 19:41 43.55084 24.96748 40802 ft 330 kts 14°